User: anonymous   Login
Location: Caltech
(34.1382°N, 118.1253°W)
Time: 05:21:07
(UTC-07:00)
Language:

TMSAT-1 - Orbit

View from above orbital plane
View from above orbital plane
View from above satellite
View from above satellite

Ground track
Ground track

The orbit data is extracted from the following two-line orbital elements,

1 25396U 98043C   16125.48001667  .00000037  00000-0  34547-4 0  9993
2 25396  98.5360  73.9409 0003840  80.6572 279.5041 14.24389828925983
Epoch (UTC): 04 May 2016 11:31:13
Eccentricity: 0.0003840
inclination: 98.5360°
perigee height: 808 km
apogee height: 813 km
right ascension of ascending node: 73.9409°
argument of perigee: 80.6572°
revolutions per day: 14.24389828
mean anomaly at epoch: 279.5041°
orbit number at epoch: 92598

The dashed part of the orbit path shows where the satellite is in the earth's shadow,  

DLR